Temperature
14 14 14 13 13 13 13 13 14 15 15 14 14 14 14 14 15 14 15 15 15 16 16 16 16 16 16 16 16 16 16 16 16 16 16 16 16 16
14 13 14 13 13 13 13 13 13 14 14 14 14 14 14 14 14 14 14 15 15 15 16 16 16 16 16 16 16 16 16 16 16 16 16 16 16 16
13 13 13 13 13 13 13 13 13 13 13 13 13 13 13 13 14 14 14 14 14 15 15 15 15 15 15 16 16 16 16 16 16 16 16 16 16 16
13 13 13 13 13 13 13 13 13 13 13 13 13 13 13 13 13 13 14 14 14 14 15 15 15 15 15 15 15 15 15 15 16 16 16 16 16 16
13 13 13 13 13 12 12 12 12 12 12 12 12 12 13 13 13 13 13 13 14 14 14 15 15 15 15 15 15 15 15 15 15 15 15 15 15 15
13 12 12 12 12 12 12 12 12 12 12 12 12 12 12 12 12 13 13 13 13 13 14 14 14 14 14 15 15 15 15 15 15 15 15 15 15 15
12 12 12 12 12 12 12 12 12 12 11 12 12 12 12 12 12 12 12 12 13 13 13 13 13 13 14 14 14 14 14 15 15 15 15 15 15 15
12 12 12 12 12 12 12 12 12 11 11 11 11 11 11 11 11 11 11 12 12 12 12 13 13 13 13 13 14 14 14 14 14 14 14 14 14 15
12 11 11 11 11 11 11 11 11 11 11 11 11 11 11 11 11 11 11 11 11 11 12 12 13 13 13 13 14 14 14 14 14 14 14 14 14 14
11 11 11 11 11 11 10 10 10 10 10 10 10 10 10 10 10 10 10 10 11 11 11 11 12 12 13 13 13 13 14 14 14 14 14 14 14 14
11 11 11 10 11 11 10 10 10 10 10 10 10 10 10 10 10 10 10 10 10 11 11 11 11 12 12 12 13 13 13 13 13 13 13 13 13 13
11 10 11 10 10 10 10 9 9 9 9 9 9 9 9 9 9 9 9 9 9 10 10 10 10 10 11 11 12 12 12 12 13 13 13 13 13 12
10 10 10 10 10 10 10 9 9 9 9 9 9 9 9 9 9 9 9 9 9 9 9 9 9 9 10 10 11 11 11 12 12 12 12 12 12 12
9 9 9 10 9 9 9 9 9 9 8 8 8 8 8 8 8 8 8 8 8 8 8 9 9 9 9 9 10 10 10 11 11 11 11 11 12 12
9 9 9 9 9 9 9 8 8 8 8 8 8 8 8 8 8 8 8 8 8 8 8 8 8 8 8 9 9 9 10 10 10 10 10 11 11 11
9 9 9 9 8 8 8 8 8 8 7 7 7 7 7 7 7 7 7 7 7 7 8 8 8 8 8 8 8 9 9 9 9 9 10 10 10 10
8 8 8 8 8 8 8 8 7 7 7 7 7 7 7 6 6 6 6 6 6 6 7 7 7 7 7 7 7 8 8 8 9 9 9 9 10 10
8 8 8 7 7 7 7 7 7 7 7 6 6 6 6 6 6 6 6 6 6 6 6 6 6 6 7 7 7 7 8 8 8 8 8 8 9 9
8 7 7 7 7 7 7 6 6 6 6 6 6 6 5 5 5 5 5 5 5 5 5 6 6 5 6 6 7 7 7 7 7 7 7 8 8 8
7 7 7 7 7 6 6 6 6 6 6 5 5 5 5 5 5 5 5 4 5 5 5 5 5 5 5 5 5 6 6 6 6 6 7 7 7 7
7 7 7 7 6 6 6 6 5 5 5 5 5 5 4 4 4 4 4 4 4 4 4 4 5 4 4 4 4 5 5 6 6 6 6 6 6 6
7 7 6 6 6 6 5 5 5 5 5 4 4 4 4 4 3 3 3 3 3 3 3 4 4 4 4 4 4 4 5 5 5 5 6 6 6 6
7 6 6 6 5 5 5 5 4 4 4 4 4 3 3 3 3 3 3 3 2 3 3 3 3 3 3 3 4 4 4 4 5 5 5 5 6 6
Wind_Speed
6 6 5 5 5 4 4 4 4 3 3 3 3 5 6 5 6 4 3 3 3 3 3 3 4 5 6 7 7 8 8 8 8 8 9 11 12 13
5 6 6 5 5 4 4 4 4 4 3 4 4 5 5 5 5 5 4 3 3 3 4 5 5 5 7 8 8 9 9 10 10 10 10 11 11 12
5 6 6 6 5 5 5 4 4 4 4 4 4 5 5 6 5 5 5 5 3 2 3 5 6 7 7 8 9 10 10 10 11 11 11 12 12 12
5 5 6 5 6 5 5 5 5 5 5 6 5 5 6 6 6 6 5 5 5 2 4 5 7 8 9 9 10 10 11 11 12 12 12 12 13 13
5 5 5 6 6 5 5 5 5 5 5 5 6 5 6 6 6 6 6 5 6 5 5 7 8 8 9 10 10 11 12 12 12 12 12 12 13 14
4 4 5 6 6 6 5 6 5 5 5 5 5 6 6 6 6 6 6 5 6 6 6 6 7 9 11 11 12 12 13 13 13 13 13 13 13 13
4 4 5 6 7 7 6 7 7 6 5 6 6 6 6 6 7 7 7 7 7 5 6 6 6 7 8 11 13 13 13 13 14 14 14 14 14 14
4 4 4 4 4 3 5 6 7 7 7 7 7 8 8 8 7 8 8 8 7 5 7 8 7 7 7 8 8 10 13 14 14 15 15 16 16 15
4 4 4 4 6 6 4 4 4 4 6 8 9 9 9 9 10 10 9 9 9 8 8 10 8 9 8 9 9 12 14 15 15 16 16 16 16 16
4 4 5 5 7 8 8 7 7 6 6 7 8 9 9 10 10 11 11 11 11 9 8 10 9 9 9 9 10 13 14 15 16 16 16 16 17 17
3 4 5 5 7 10 9 8 8 7 4 6 9 10 12 12 11 9 9 9 10 9 8 9 10 10 10 9 10 13 14 15 16 16 16 16 16 16
3 3 3 5 7 10 9 8 9 9 10 9 9 9 10 8 9 9 9 9 10 9 7 7 9 8 9 8 8 8 10 13 15 16 17 17 16 13
4 4 3 3 7 9 10 9 9 11 11 10 9 9 9 8 8 8 8 8 10 10 9 9 10 10 10 10 9 9 9 9 10 12 15 17 18 15
6 5 4 4 8 10 9 9 10 11 9 8 9 9 9 8 8 9 11 11 11 13 13 13 11 11 11 12 11 9 9 9 9 10 10 13 16 19
6 6 7 8 9 9 8 9 10 8 8 9 9 9 9 9 9 9 11 11 13 14 14 14 12 11 12 13 12 11 10 10 10 10 10 10 10 10
7 6 8 9 9 9 9 8 8 8 9 9 10 10 9 9 9 9 9 9 10 11 12 13 12 12 12 13 12 12 11 10 10 10 10 10 10 11
8 8 8 8 8 8 8 8 8 8 9 9 10 10 10 10 10 9 9 10 11 12 12 10 11 11 12 12 13 13 12 12 11 11 10 10 10 11
8 8 9 9 9 9 9 9 9 9 9 10 10 10 10 10 11 10 10 11 11 12 12 11 10 10 11 11 12 13 12 12 10 10 10 10 11 10
8 9 9 9 10 10 10 10 10 10 10 10 11 11 11 11 11 11 11 11 12 12 12 11 10 10 12 14 12 9 10 10 9 10 10 11 11 10
8 9 10 10 10 10 10 11 11 10 10 10 11 11 11 11 12 12 12 13 13 13 13 12 11 10 12 13 13 13 12 11 10 10 9 9 9 8
9 10 10 10 10 10 10 11 11 11 11 11 11 12 11 12 12 12 13 14 13 13 14 13 12 11 11 10 11 12 11 10 11 10 10 8 9 9
10 10 10 10 10 10 10 10 11 11 12 11 11 12 12 12 13 14 13 13 13 13 15 13 12 11 10 12 13 13 13 11 9 10 11 12 10 10
10 10 10 10 10 10 10 11 12 11 11 11 12 12 12 13 13 13 13 13 13 14 14 13 12 11 11 12 12 12 13 12 9 9 9 9 12 14
Wind_Direction
40 40 35 34 27 21 9 356 345 345 6 18 8 5 358 356 347 333 341 15 331 304 280 262 243 228 223 220 215 217 222 225 221 218 220 221 221 221
36 35 30 28 24 19 9 2 351 338 332 349 346 345 347 336 342 330 322 292 271 270 272 264 260 249 238 231 224 223 227 228 227 226 226 227 226 226
42 40 36 26 20 17 9 2 354 343 325 328 338 337 333 331 333 325 313 300 290 232 260 264 260 255 251 243 233 228 230 233 233 232 232 233 233 229
32 31 30 27 19 14 5 1 358 346 329 327 327 335 332 331 326 315 308 302 298 273 255 261 260 256 252 247 241 235 234 235 236 235 236 236 233 231
25 19 17 15 9 9 358 358 351 346 335 321 325 329 322 327 322 312 306 302 294 279 251 244 248 251 250 244 242 242 239 238 236 234 234 235 234 233
26 19 13 8 1 354 350 349 342 333 330 324 321 322 321 324 316 317 312 308 297 294 289 272 249 241 243 242 241 243 241 238 236 234 234 235 235 234
16 18 22 15 8 355 346 340 334 325 322 320 319 318 319 324 325 320 309 307 297 289 290 281 268 259 248 237 235 238 241 240 237 236 235 235 235 234
4 1 8 5 5 347 347 340 334 324 323 318 314 314 318 320 320 310 307 303 300 302 297 288 279 272 263 257 239 233 239 242 240 237 234 234 233 233
353 355 359 359 339 344 338 287 299 298 301 307 308 311 311 316 312 306 301 297 293 297 297 287 280 273 268 258 236 235 238 240 240 239 236 233 231 231
352 348 343 348 4 345 329 325 325 325 317 305 305 306 308 308 303 298 296 291 286 280 273 277 280 278 275 266 238 233 235 238 239 239 238 235 232 232
343 346 343 344 15 336 322 322 320 319 309 294 296 292 291 288 291 290 290 289 288 287 279 276 283 286 282 272 253 230 231 236 238 238 237 235 233 233
323 321 7 348 347 328 320 320 316 319 317 309 295 285 287 285 271 278 288 288 288 288 283 280 286 291 283 274 268 254 243 238 235 236 234 231 227 231
303 304 322 350 322 318 311 312 322 316 307 303 302 303 301 299 296 292 290 285 285 283 289 287 284 282 277 280 278 270 263 258 248 241 232 228 224 223
297 299 314 323 308 304 301 314 312 302 297 301 302 302 302 302 302 303 298 288 282 283 286 283 278 277 278 278 278 274 270 266 260 255 248 231 226 224
290 309 307 296 291 284 279 290 293 292 297 298 299 301 302 301 302 299 294 291 288 284 282 279 276 276 274 274 275 275 275 271 261 256 253 246 239 232
281 281 264 265 268 282 290 282 285 293 296 293 296 298 300 298 294 296 296 296 294 291 285 281 278 276 274 273 271 270 270 268 263 260 256 254 249 239
300 289 286 287 289 290 291 293 293 292 291 292 293 295 296 296 295 297 296 294 291 293 295 292 285 279 275 276 271 265 266 266 262 260 260 259 257 249
285 282 285 287 289 292 293 293 292 292 293 294 294 294 294 294 295 295 293 291 291 292 292 291 288 287 283 278 258 262 265 266 267 264 261 258 259 255
267 277 282 286 287 289 290 291 292 292 293 292 292 293 294 293 292 292 292 292 291 292 291 288 284 283 283 284 284 264 270 274 273 272 266 261 259 258
264 274 280 283 286 287 289 289 290 291 291 290 290 292 292 291 291 290 290 292 293 293 293 288 282 278 278 284 289 288 269 264 266 266 271 275 275 272
271 274 278 282 284 286 288 289 289 289 290 290 290 291 291 290 290 290 290 290 288 289 290 289 289 284 283 283 281 279 280 266 256 259 266 270 274 269
273 277 279 282 284 285 287 287 287 287 288 288 289 290 290 289 288 288 289 289 287 286 289 291 290 284 277 274 276 280 285 287 283 261 256 253 255 254
274 278 281 282 282 284 285 284 285 287 289 289 290 290 291 290 288 287 287 287 286 287 288 290 288 285 279 274 275 276 277 281 286 287 282 269 249 249
Height
1558 1557 1556 1555 1554 1553 1553 1552 1552 1550 1550 1549 1548 1547 1546 1545 1544 1544 1543 1543 1542 1543 1543 1543 1544 1545 1546 1547 1548 1549 1550 1552 1553 1554 1555 1556 1558 1559
1558 1558 1557 1556 1555 1554 1553 1552 1552 1551 1550 1549 1548 1547 1545 1544 1543 1543 1542 1541 1541 1541 1541 1541 1542 1542 1543 1544 1545 1546 1547 1549 1550 1551 1552 1553 1555 1556
1560 1559 1557 1556 1555 1554 1553 1552 1551 1551 1549 1548 1547 1546 1544 1543 1542 1541 1541 1540 1540 1539 1539 1539 1539 1539 1540 1541 1542 1543 1544 1545 1546 1547 1548 1549 1551 1552
1560 1559 1558 1557 1556 1555 1553 1552 1551 1550 1549 1547 1546 1545 1543 1542 1540 1539 1539 1538 1537 1536 1536 1535 1535 1536 1536 1536 1537 1538 1539 1541 1542 1543 1544 1545 1546 1547
1561 1560 1558 1557 1556 1554 1553 1552 1551 1549 1548 1546 1545 1543 1541 1540 1538 1537 1537 1535 1535 1534 1533 1532 1532 1532 1532 1532 1533 1534 1535 1536 1537 1538 1539 1540 1541 1542
1560 1559 1558 1557 1555 1554 1553 1551 1550 1548 1547 1545 1544 1542 1540 1538 1537 1536 1534 1533 1532 1531 1530 1529 1528 1528 1528 1528 1528 1529 1530 1531 1532 1533 1534 1535 1536 1537
1560 1559 1557 1555 1554 1553 1551 1550 1548 1547 1546 1544 1542 1540 1539 1537 1535 1533 1532 1530 1529 1528 1527 1526 1525 1524 1524 1523 1523 1524 1525 1525 1526 1527 1528 1529 1530 1531
1560 1558 1557 1555 1553 1551 1550 1548 1546 1545 1544 1542 1540 1539 1537 1535 1533 1531 1529 1528 1526 1526 1524 1522 1521 1520 1519 1519 1519 1519 1519 1519 1520 1521 1522 1523 1523 1524
1558 1557 1555 1553 1551 1550 1548 1546 1544 1542 1541 1540 1538 1536 1534 1532 1530 1528 1526 1524 1522 1521 1520 1517 1517 1515 1515 1514 1513 1513 1513 1513 1514 1514 1515 1516 1517 1517
1556 1555 1554 1552 1549 1547 1546 1544 1542 1540 1538 1536 1535 1532 1530 1528 1526 1524 1522 1520 1517 1516 1515 1513 1512 1510 1509 1508 1507 1506 1507 1507 1507 1507 1508 1509 1510 1511
1554 1553 1551 1549 1547 1544 1543 1541 1539 1537 1534 1532 1530 1527 1525 1523 1521 1519 1517 1516 1513 1512 1511 1509 1506 1505 1503 1501 1501 1500 1500 1500 1500 1501 1501 1502 1503 1504
1552 1550 1548 1546 1544 1542 1540 1538 1536 1533 1531 1528 1525 1523 1521 1519 1517 1515 1513 1511 1509 1507 1505 1504 1502 1500 1497 1495 1495 1494 1493 1493 1493 1493 1494 1495 1496 1496
1550 1548 1546 1543 1541 1539 1536 1535 1532 1529 1526 1524 1522 1519 1517 1515 1513 1511 1509 1506 1504 1502 1501 1499 1496 1495 1493 1490 1488 1488 1487 1486 1486 1486 1486 1487 1488 1489
1546 1545 1542 1540 1537 1535 1533 1530 1527 1524 1522 1520 1518 1515 1512 1510 1507 1505 1502 1500 1498 1496 1494 1493 1490 1488 1486 1484 1482 1481 1480 1480 1479 1479 1479 1479 1479 1480
1542 1540 1538 1536 1533 1531 1528 1526 1523 1521 1518 1516 1513 1510 1508 1505 1501 1499 1496 1493 1491 1489 1487 1485 1484 1482 1480 1477 1475 1474 1473 1472 1472 1471 1471 1471 1471 1471
1539 1536 1534 1531 1529 1527 1524 1522 1519 1517 1514 1511 1508 1505 1502 1499 1496 1493 1490 1487 1484 1481 1480 1479 1477 1475 1472 1470 1468 1466 1466 1464 1464 1464 1463 1463 1463 1463
1534 1532 1530 1528 1526 1523 1520 1518 1515 1512 1509 1506 1503 1500 1497 1494 1491 1488 1485 1482 1479 1475 1472 1470 1469 1467 1465 1463 1460 1458 1458 1457 1456 1456 1455 1454 1454 1455
1530 1528 1526 1524 1521 1519 1516 1513 1510 1507 1504 1501 1498 1495 1492 1489 1486 1483 1480 1476 1473 1470 1467 1464 1462 1459 1457 1454 1454 1451 1450 1449 1448 1447 1447 1445 1445 1446
1525 1523 1521 1519 1516 1514 1511 1508 1505 1502 1499 1496 1492 1489 1486 1483 1480 1477 1474 1471 1467 1464 1461 1458 1456 1453 1450 1446 1443 1444 1442 1440 1439 1438 1438 1437 1436 1436
1520 1518 1516 1513 1511 1508 1505 1502 1499 1496 1493 1490 1487 1484 1481 1477 1474 1471 1468 1464 1461 1457 1454 1451 1449 1447 1444 1440 1435 1433 1433 1432 1431 1430 1430 1429 1428 1428
1515 1512 1510 1507 1504 1502 1499 1496 1493 1490 1487 1484 1481 1477 1474 1471 1467 1464 1461 1457 1454 1450 1446 1443 1441 1439 1436 1433 1428 1424 1424 1424 1423 1423 1422 1421 1420 1419
1508 1506 1503 1501 1498 1495 1492 1489 1486 1483 1480 1477 1474 1471 1468 1464 1460 1457 1454 1450 1447 1443 1439 1435 1433 1431 1428 1425 1421 1417 1415 1415 1414 1414 1414 1414 1412 1410
1501 1498 1496 1493 1491 1488 1485 1482 1479 1476 1473 1470 1466 1463 1460 1457 1453 1450 1446 1443 1439 1435 1432 1428 1425 1423 1420 1417 1414 1411 1408 1407 1406 1405 1405 1405 1405 1405